Find Starlink 35597

NORAD ID: 66493 Int'l Des: 2025-263 Owner: SPXS Country: US Constellation: starlink operational
LEOCIRCULAR

Current View

Loading 3D Globe...

About Starlink 35597

Starlink 35597 (NORAD 66493) is a starlink constellation satellite (v2 mini) launched Nov 15, 2025 by SPXS of US. It operates in LEO, CIRCULAR orbit with a mass of 575.00 kg.

Upcoming Passes

Passes for default location (London). Set your location on the main map for personalized predictions.

Altitude History

Loading altitude history...

Two-Line Element Set

1 66493U 25263J 26237.37320050 .00011816 00000-0 43816-3 0 9998
2 66493 42.9967 118.3410 0000713 290.6388 69.4387 15.27582800 44690
Epoch: Aug 25, 2026 • Age: 10 hours

Current Status

Altitude 493.8 km
Apogee / Perigee N/A
Velocity 7.62 km/s
Sub-Earth Point -37.81°S, 86.16°E
Launch Date Nov 15, 2025
Age 0.7 years
Type internet

Technical Details

Classification Payload
Mass 575.00 kg
Dry Mass 530.00 kg
Total Mass 575.00 kg
Length 0.30 m
Diameter 4.10 m
Span 29.00 m
Shape Box + pan
Manufacturer SPXS
Bus Type Starlink V2MO
Phase Status In Orbit
Owner/State SPXS/US

Most Searched